Dewpoint
54 55 51 52 53 54 56 56 55 56 58 59 60 59 57 56 55 49 46 51 51 52 43 40 42 41 38 36 35 34 29 26 30 30 31 29 28 26 25 25 23 24 31 28 28
54 53 51 52 53 54 55 55 56 57 58 59 60 57 57 56 43 42 49 54 54 53 39 43 41 37 34 33 34 34 29 29 31 30 31 29 27 25 24 23 21 22 24 25 29
55 55 53 53 54 55 54 55 56 57 58 59 57 56 56 48 34 32 46 53 54 49 38 39 37 34 32 32 31 33 30 30 28 28 30 27 24 23 23 25 23 22 23 24 30
53 52 53 53 53 54 55 55 57 58 58 55 56 56 48 39 23 34 49 51 51 45 38 35 33 31 31 29 29 29 29 29 27 24 25 26 22 21 21 18 17 20 22 23 28
52 51 51 53 53 54 57 57 58 58 56 55 54 52 43 31 31 37 48 41 37 38 35 34 34 29 28 26 29 29 25 21 21 23 22 18 17 18 15 19 19 21 24 25 28
52 54 55 55 56 57 57 57 57 55 55 55 53 49 34 29 36 39 38 33 34 33 32 32 30 27 25 24 26 26 23 20 21 22 26 18 17 20 11 17 19 20 22 23 27
55 55 56 56 56 56 57 57 55 54 55 55 53 43 36 34 38 40 34 32 33 32 30 31 27 27 25 24 21 19 19 21 23 23 24 25 15 17 12 20 18 17 20 24 28
54 54 55 56 56 57 56 56 56 55 55 55 52 38 33 37 40 38 33 32 33 31 29 31 29 27 24 21 15 13 14 18 23 27 25 21 15 8 20 16 18 18 22 31 36
53 53 53 53 55 56 56 54 54 54 53 51 47 35 30 41 36 39 37 30 30 32 31 29 31 26 23 19 19 13 15 11 19 31 30 23 14 15 20 22 17 20 21 28 35
53 53 53 53 54 55 55 54 51 49 47 49 42 31 33 34 38 39 39 32 29 28 29 30 28 26 26 30 31 12 9 11 12 25 28 24 21 20 21 22 21 19 18 22 28
53 53 53 53 52 51 48 47 41 41 43 37 37 35 36 38 39 36 38 30 29 27 20 28 38 31 24 21 13 14 13 11 19 28 28 22 22 21 22 24 22 21 21 21 22
53 54 53 51 52 51 49 43 44 43 36 39 37 36 38 38 28 34 35 26 26 23 24 30 30 27 26 23 21 18 15 16 18 28 28 26 23 21 22 24 26 26 25 25 24
53 53 53 51 51 49 45 45 49 48 35 35 36 35 35 35 33 34 34 28 26 26 24 24 26 27 24 22 23 25 21 22 25 29 27 26 22 19 22 30 33 35 36 35 33
52 52 53 51 47 47 44 47 49 47 38 33 31 33 34 34 30 36 36 30 28 24 27 27 28 23 25 28 26 17 30 30 30 29 25 25 22 14 15 18 25 28 34 36 36
52 52 50 50 45 42 45 46 46 41 29 30 31 36 35 30 30 32 35 31 28 27 26 26 27 23 26 29 29 26 32 32 32 30 28 22 25 11 18 16 25 28 33 37 38
51 51 48 45 44 46 47 44 39 37 25 28 31 31 28 31 31 31 31 32 31 27 29 30 32 32 30 33 32 34 32 29 29 29 30 26 26 7 13 21 26 30 31 36 39
51 49 46 43 41 47 43 38 38 30 27 26 28 30 30 29 29 30 29 28 28 34 34 23 26 31 33 31 35 32 26 33 31 33 24 27 28 27 20 23 27 29 30 32 38
51 45 45 44 46 44 38 33 31 27 26 29 29 29 27 29 30 28 26 28 30 21 26 29 26 27 31 32 29 29 24 29 20 18 15 21 30 21 21 20 24 33 33 35 35
47 44 45 46 46 42 33 34 31 28 28 28 26 24 27 28 27 26 26 26 29 27 22 28 27 32 32 33 32 29 29 23 24 20 23 21 22 18 16 18 26 27 29 35 35
42 42 43 46 44 39 36 30 29 29 30 28 20 24 21 25 25 23 24 29 29 32 31 20 28 30 32 34 34 32 28 24 27 20 10 14 9 23 14 24 24 29 31 32 35
42 39 44 46 40 35 37 32 31 32 32 27 25 24 26 27 26 25 23 29 29 31 31 27 24 29 32 30 26 29 28 27 23 17 12 1 11 23 19 21 24 28 32 33 33
43 39 45 43 36 34 34 31 34 32 34 32 29 28 26 28 27 26 23 27 31 32 29 30 26 28 25 30 31 31 27 24 15 14 20 17 14 21 23 28 32 28 28 28 30
38 38 43 39 36 35 33 32 32 32 32 32 30 30 29 28 25 27 28 32 32 31 29 30 23 18 14 24 30 29 29 28 22 21 20 9 2 15 27 23 21 25 27 28 27
33 40 36 36 33 30 29 30 31 34 33 32 31 30 29 27 28 27 29 32 32 32 36 33 24 18 7 7 24 25 28 29 25 25 13 14 8 10 14 19 22 25 25 24 24
35 34 34 35 30 30 30 30 29 29 33 32 30 29 27 24 26 26 29 32 33 38 34 32 25 26 23 22 20 20 19 27 27 24 18 10 12 14 17 22 25 25 24 23 23
34 32 32 31 30 29 31 29 27 30 30 28 28 29 29 25 24 24 28 30 29 35 33 33 28 28 28 26 26 25 25 24 23 24 23 22 23 24 25 24 24 23 23 24 24
37 36 31 30 28 22 26 30 29 31 31 30 30 30 29 30 30 30 29 29 29 32 32 32 30 28 21 23 22 17 17 21 24 25 24 22 23 24 25 25 25 25 25 24 24
Lifted_Index
0 -0 -0 -1 -2 -2 -2 -2 -2 -2 -2 -2 -1 1 4 6 7 7 8 7 7 8 9 8 7 7 7 8 9 8 6 4 5 5 6 7 7 7 8 8 8 9 10 11 11
-0 -0 -0 -1 -2 -2 -2 -2 -2 -2 -2 -1 -1 1 4 6 7 8 8 8 7 8 9 8 7 7 8 9 9 8 6 5 5 6 7 7 7 7 8 8 8 9 10 11 11
0 -0 -0 -1 -1 -2 -2 -2 -2 -2 -1 -1 1 2 4 6 8 9 9 8 8 8 8 7 7 7 8 8 8 7 6 6 7 7 8 8 8 8 8 8 9 10 11 12 12
1 0 -0 -1 -1 -2 -2 -2 -2 -2 -1 1 2 4 5 7 7 9 9 9 8 8 7 7 7 7 8 8 8 8 7 7 8 8 8 8 8 8 8 9 10 11 11 12 12
1 1 -0 -1 -1 -2 -2 -3 -2 -1 1 2 3 5 6 7 8 9 9 8 8 7 7 7 7 8 8 8 8 8 8 8 8 8 8 8 8 8 9 10 11 11 11 12 12
0 -0 -1 -1 -2 -2 -2 -2 -1 0 2 3 4 5 6 7 8 9 9 8 7 6 6 7 7 8 8 8 8 8 8 8 8 8 8 8 8 8 9 10 11 10 11 11 11
-0 -1 -1 -1 -2 -2 -2 -1 -1 1 2 3 4 5 6 7 8 9 8 7 6 6 7 7 8 9 9 9 9 8 8 8 8 8 8 8 8 8 9 10 10 10 10 10 11
0 -0 -0 -1 -1 -1 -1 -1 0 1 2 3 5 6 6 7 8 8 8 7 7 7 8 8 8 9 9 9 8 7 7 6 7 8 9 8 7 8 9 9 9 9 9 10 10
1 1 0 -0 -1 -1 -0 0 1 2 3 4 5 6 6 7 8 8 8 7 8 8 9 9 9 9 9 8 6 6 5 6 7 8 8 7 7 8 9 9 9 9 9 9 9
1 1 1 0 0 0 1 1 2 2 3 4 5 6 7 7 7 8 8 8 9 9 9 9 9 8 8 7 6 5 5 6 6 8 8 7 7 8 9 9 8 8 8 8 9
1 1 1 1 1 2 2 2 3 3 3 5 6 6 7 7 7 8 8 9 9 8 8 8 7 7 8 7 7 6 6 6 7 8 8 7 7 7 8 8 7 7 7 8 8
3 3 3 3 3 3 4 4 4 4 5 6 6 7 7 8 7 8 8 9 8 8 7 7 7 7 8 8 7 7 6 6 7 8 8 7 6 6 7 7 7 7 7 8 8
4 5 5 5 5 5 5 5 6 6 6 6 6 7 7 8 8 8 9 9 8 8 7 7 7 8 8 8 7 7 7 6 7 7 7 6 5 4 5 6 7 7 8 8 8
6 6 6 6 5 5 6 6 6 5 5 5 6 7 7 7 8 8 9 8 8 7 7 7 7 8 7 7 7 7 7 7 6 6 5 4 3 3 4 5 6 7 8 8 8
7 7 7 6 6 6 6 6 6 5 4 4 6 6 7 7 7 8 8 8 7 7 7 7 8 8 8 8 8 7 7 7 6 5 4 3 3 3 4 5 6 7 7 7 7
8 7 7 6 6 6 7 6 5 4 3 4 5 6 6 6 6 7 7 7 7 6 7 7 8 8 8 8 8 8 7 6 5 4 3 3 3 3 4 5 6 7 7 7 7
8 8 7 7 6 7 7 6 4 3 4 5 5 5 6 6 6 6 6 6 6 6 6 6 7 8 8 8 8 8 6 4 3 2 2 3 3 3 5 6 7 8 8 7 7
9 8 8 7 7 7 6 5 3 3 4 5 5 5 6 6 6 5 5 6 6 6 5 4 5 7 8 8 8 7 6 4 2 1 2 2 3 4 6 7 8 9 9 8 7
9 8 8 8 8 7 6 4 4 4 5 5 5 5 6 6 6 6 6 6 7 7 6 5 5 7 9 9 9 8 7 6 4 2 1 2 3 5 7 8 9 10 10 9 9
9 9 9 9 9 7 5 4 4 5 6 6 5 5 6 6 6 6 7 7 8 8 8 7 6 8 9 9 9 8 7 6 5 2 1 1 3 5 7 8 10 10 10 10 10
9 9 9 10 9 7 5 5 6 7 7 7 6 6 6 6 6 6 7 8 8 9 9 8 7 7 8 9 8 8 7 6 5 3 2 2 4 6 8 9 10 11 11 11 12
10 9 10 10 8 7 6 7 8 8 8 7 7 7 6 6 6 6 7 8 9 9 9 8 7 6 6 8 9 8 7 7 6 4 3 3 4 7 9 10 11 12 12 12 12
10 10 10 10 8 7 7 8 8 8 8 8 8 7 7 6 6 6 7 8 9 9 9 8 7 5 5 7 8 8 8 8 7 5 4 3 5 8 10 11 12 12 11 11 12
10 10 10 10 9 8 8 8 8 8 8 8 8 8 7 7 7 6 7 8 9 9 9 8 7 5 5 6 7 7 8 8 7 5 4 3 5 8 10 11 11 12 11 11 11
9 9 9 10 9 9 9 9 8 8 9 9 9 8 8 7 7 7 8 9 9 10 10 9 7 6 7 7 8 7 7 8 7 5 4 4 5 8 10 11 11 12 11 10 10
8 8 9 9 9 9 9 9 9 9 10 10 9 10 9 9 9 9 9 10 10 10 10 9 8 7 7 8 7 6 6 7 7 7 6 6 7 9 11 11 11 11 11 10 10
7 8 8 8 8 8 9 9 9 10 10 10 10 10 10 10 10 10 11 11 11 11 11 10 8 7 6 7 7 5 5 6 7 8 7 6 7 9 10 11 11 11 10 10 10